�N����,����,�~����,�C��,���x,�C��,����,���ϕ���,�ő�u�ԕ���,�ő厞����,���˗�,�I�_���x,�n�����x,�ő啗���N��,DTYPE
"22/05/14","00:10",0.6,20.1,95.8,999.3,189.7,0.6,2.2,197.2,0.00,19.4,18.5,"00:09:04",1
"22/05/14","00:20",0.0,20.0,95.9,998.9,188.9,1.2,2.6,173.7,0.00,19.4,18.6,"00:12:24",1
"22/05/14","00:30",0.0,19.9,95.9,998.9,235.2,0.3,1.2,233.9,0.00,19.3,18.3,"00:23:20",1
"22/05/14","00:40",0.2,19.9,95.9,998.6,339.5,0.6,1.0,344.6,0.00,19.3,18.6,"00:34:16",1
"22/05/14","00:50",0.2,19.9,96.0,998.6,190.0,0.1,0.5,95.6,0.00,19.3,18.6,"00:44:24",1
"22/05/14","01:00",0.4,19.9,96.0,998.6,315.3,0.5,0.9,345.7,0.00,19.3,18.3,"00:52:40",1
"22/05/14","01:10",0.4,19.9,96.1,998.6,231.0,0.3,0.8,167.6,0.00,19.3,18.7,"01:08:40",1
"22/05/14","01:20",0.8,19.9,96.1,998.4,166.1,0.2,0.6,145.7,0.00,19.3,18.6,"01:16:00",1
"22/05/14","01:30",0.4,19.9,96.1,998.6,282.7,0.1,0.6,269.2,0.00,19.3,18.5,"01:29:44",1
"22/05/14","01:40",0.8,20.0,96.1,998.4,269.0,0.7,1.0,250.8,0.00,19.4,18.6,"01:31:12",1
"22/05/14","01:50",0.6,20.0,96.2,998.2,332.1,0.7,1.2,322.6,0.00,19.4,18.5,"01:49:14",1
"22/05/14","02:00",0.6,19.9,96.2,998.4,302.2,0.3,1.1,329.5,0.00,19.3,18.5,"01:50:16",1
"22/05/14","02:10",0.4,19.9,96.2,998.2,337.7,0.5,0.9,345.4,0.00,19.3,18.6,"02:05:28",1
"22/05/14","02:20",0.0,19.8,96.2,998.4,296.3,0.6,0.9,318.3,0.00,19.2,18.4,"02:15:20",1
"22/05/14","02:30",0.2,19.8,96.3,997.9,281.4,0.6,0.9,319.8,0.00,19.2,18.4,"02:21:12",1
"22/05/14","02:40",0.0,19.8,96.3,997.7,252.1,0.6,0.9,237.4,0.00,19.2,18.4,"02:30:56",1
"22/05/14","02:50",0.2,19.8,96.4,997.4,181.8,0.3,0.8,170.6,0.00,19.3,18.4,"02:45:52",1
"22/05/14","03:00",0.0,19.8,96.4,997.4,263.0,0.3,1.0,291.6,0.00,19.3,18.4,"02:58:56",1
"22/05/14","03:10",0.2,19.9,96.5,997.7,325.4,0.8,1.2,324.2,0.00,19.4,18.6,"03:09:36",1
"22/05/14","03:20",0.6,19.8,96.5,997.4,303.5,0.3,0.6,300.1,0.00,19.3,18.5,"03:10:08",1
"22/05/14","03:30",0.4,19.9,96.5,997.2,127.8,0.1,0.6,109.9,0.00,19.4,18.5,"03:28:56",1
"22/05/14","03:40",0.8,19.9,96.5,996.7,81.1,0.3,1.0,109.2,0.00,19.4,18.5,"03:35:44",1
"22/05/14","03:50",0.8,19.9,96.5,996.7,135.0,0.7,2.4,128.3,0.00,19.4,18.3,"03:44:00",1
"22/05/14","04:00",0.2,19.9,96.6,997.4,256.8,0.7,1.3,285.4,0.00,19.4,18.4,"03:58:48",1
"22/05/14","04:10",0.2,19.9,96.6,997.7,330.4,1.2,1.8,340.7,0.00,19.4,18.5,"04:07:44",1
"22/05/14","04:20",0.4,19.9,96.7,997.4,342.9,1.1,1.9,344.5,0.00,19.4,18.5,"04:14:32",1
"22/05/14","04:30",0.0,19.8,96.7,997.4,18.5,0.3,0.9,10.1,0.00,19.3,18.5,"04:21:04",1
"22/05/14","04:40",0.2,19.8,96.8,997.9,243.2,0.7,1.8,249.9,0.00,19.3,18.7,"04:36:32",1
"22/05/14","04:50",0.0,19.8,96.8,997.7,282.8,1.0,1.3,321.7,0.00,19.3,18.4,"04:41:20",1
"22/05/14","05:00",0.0,19.7,96.8,997.9,123.1,0.3,1.0,244.2,0.00,19.2,18.3,"04:50:08",1
"22/05/14","05:10",0.0,19.7,96.9,997.7,168.8,0.5,1.3,136.0,0.00,19.2,18.4,"05:06:16",1
"22/05/14","05:20",0.0,19.8,96.9,998.4,259.0,0.6,1.3,302.3,0.00,19.3,18.5,"05:17:36",1
"22/05/14","05:30",0.0,19.8,97.0,998.2,303.9,0.5,1.4,340.4,0.00,19.4,18.4,"05:29:52",1
"22/05/14","05:40",0.0,19.8,97.0,998.4,322.0,0.8,1.8,344.6,0.00,19.4,18.2,"05:30:16",1
"22/05/14","05:50",0.0,19.8,97.0,998.4,322.7,0.7,1.9,337.1,0.00,19.4,18.3,"05:40:02",1
"22/05/14","06:00",0.0,19.8,97.0,998.4,281.7,0.8,1.7,350.7,0.00,19.4,18.5,"05:50:08",1
"22/05/14","06:10",0.0,19.9,97.1,998.9,282.6,0.8,1.4,338.3,0.00,19.5,18.4,"06:09:52",1
"22/05/14","06:20",0.0,19.9,97.1,998.6,8.8,0.7,1.9,50.9,0.00,19.5,18.4,"06:19:44",1
"22/05/14","06:30",0.0,19.9,97.1,998.9,319.2,0.7,1.6,340.1,0.00,19.5,18.3,"06:20:16",1
"22/05/14","06:40",0.0,19.9,97.1,998.6,318.1,1.0,1.8,335.5,0.00,19.5,18.5,"06:35:12",1
"22/05/14","06:50",0.0,19.9,97.1,998.9,295.4,1.1,1.9,307.6,0.00,19.5,18.4,"06:49:52",1
"22/05/14","07:00",0.0,19.6,97.3,999.1,315.0,1.8,3.5,326.5,0.00,19.2,18.4,"06:55:28",1
"22/05/14","07:10",0.0,19.7,97.3,998.9,306.8,1.5,2.4,316.3,0.00,19.3,18.4,"07:03:12",1
"22/05/14","07:20",0.0,19.7,97.3,999.3,277.5,1.1,1.8,255.0,0.01,19.3,18.5,"07:19:44",1
"22/05/14","07:30",0.0,19.7,97.3,999.6,295.0,0.8,1.3,287.8,0.02,19.3,18.5,"07:28:48",1
"22/05/14","07:40",0.0,20.1,97.4,999.6,322.3,0.8,1.6,334.4,0.07,19.7,18.5,"07:30:02",1
"22/05/14","07:50",0.0,19.9,97.3,999.6,318.3,1.2,2.0,335.2,0.08,19.5,18.5,"07:49:20",1
"22/05/14","08:00",0.0,19.9,97.4,999.8,273.8,1.2,2.7,242.4,0.05,19.5,18.3,"07:55:44",1
"22/05/14","08:10",0.0,20.4,97.4,1000.0,312.1,0.8,2.5,324.8,0.07,20.0,18.4,"08:00:48",1
"22/05/14","08:20",0.0,20.4,96.9,1000.3,227.5,0.6,1.2,257.5,0.08,19.9,18.2,"08:14:16",1
"22/05/14","08:30",0.0,20.2,97.2,1000.8,262.6,1.0,3.2,238.3,0.10,19.8,18.5,"08:27:44",1
"22/05/14","08:40",0.0,19.9,97.1,1000.5,328.6,1.3,2.0,335.0,0.04,19.5,18.5,"08:31:04",1
"22/05/14","08:50",0.0,19.0,97.2,1001.2,338.2,2.0,4.1,319.1,0.05,18.6,18.4,"08:44:24",1
"22/05/14","09:00",0.0,19.7,96.9,1001.0,303.5,0.8,2.2,305.9,0.07,19.2,18.4,"08:50:16",1
"22/05/14","09:10",0.0,19.9,96.6,1001.2,350.1,0.7,1.7,306.0,0.09,19.4,18.6,"09:03:20",1
"22/05/14","09:20",0.0,19.2,95.9,1001.5,294.4,1.2,5.1,344.7,0.05,18.6,18.4,"09:19:04",1
"22/05/14","09:30",0.0,19.0,95.6,1001.9,340.4,2.6,5.5,305.9,0.08,18.3,18.4,"09:22:24",1
"22/05/14","09:40",0.0,18.6,94.9,1002.2,350.6,3.1,7.0,338.2,0.06,17.8,18.4,"09:39:20",1
"22/05/14","09:50",0.0,18.4,94.5,1002.2,351.3,3.6,6.2,349.7,0.05,17.5,18.4,"09:46:24",1
"22/05/14","10:00",0.0,18.4,93.4,1002.2,349.3,3.2,6.5,352.0,0.05,17.4,18.5,"09:55:44",1
"22/05/14","10:10",0.0,18.4,92.1,1002.2,344.7,4.1,9.0,355.1,0.06,17.1,18.4,"10:08:00",1
"22/05/14","10:20",0.0,18.4,89.5,1002.6,346.7,4.7,8.2,341.0,0.08,16.7,18.5,"10:11:36",1
"22/05/14","10:30",0.0,18.6,86.7,1002.6,341.7,3.9,5.6,348.0,0.10,16.4,18.4,"10:22:56",1
"22/05/14","10:40",0.0,19.0,84.1,1002.9,320.7,3.0,5.9,319.6,0.13,16.3,18.6,"10:30:40",1
"22/05/14","10:50",0.0,20.1,81.9,1002.2,312.5,2.5,5.8,323.4,0.27,17.0,18.4,"10:43:28",1
"22/05/14","11:00",0.0,20.7,79.2,1002.4,322.7,3.0,4.7,346.9,0.34,17.0,18.3,"10:50:40",1
"22/05/14","11:10",0.0,21.0,76.4,1002.6,317.0,2.8,5.6,353.7,0.43,16.7,18.5,"11:08:56",1
"22/05/14","11:20",0.0,20.9,74.3,1002.4,316.3,3.2,6.6,299.0,0.38,16.2,18.4,"11:16:24",1
"22/05/14","11:30",0.0,20.4,74.7,1002.9,348.3,2.6,6.6,343.3,0.17,15.8,18.6,"11:23:20",1
"22/05/14","11:40",0.0,20.3,75.9,1002.6,351.5,2.6,5.4,346.0,0.16,16.0,18.2,"11:38:08",1
"22/05/14","11:50",0.0,20.2,76.8,1002.9,0.5,2.8,5.1,9.2,0.22,16.0,18.4,"11:43:20",1
"22/05/14","12:00",0.0,19.6,76.8,1002.6,357.1,3.0,5.9,352.1,0.15,15.5,18.6,"11:57:28",1
"22/05/14","12:10",0.0,20.5,76.9,1002.4,348.6,3.0,5.7,335.1,0.43,16.4,18.7,"12:09:36",1
"22/05/14","12:20",0.0,20.5,75.4,1002.9,359.7,2.6,6.7,10.5,0.29,16.0,18.6,"12:18:08",1
"22/05/14","12:30",0.0,19.6,75.8,1003.1,4.0,3.6,7.9,38.1,0.28,15.3,18.4,"12:25:44",1
"22/05/14","12:40",0.0,19.4,76.2,1003.4,10.5,3.0,5.9,10.5,0.26,15.1,18.4,"12:37:04",1
"22/05/14","12:50",0.0,19.3,76.6,1003.1,0.2,3.0,6.6,15.3,0.21,15.1,18.6,"12:42:16",1
"22/05/14","13:00",0.0,19.9,75.2,1003.1,351.5,2.7,5.5,338.2,0.29,15.4,18.7,"12:53:36",1
"22/05/14","13:10",0.0,20.2,73.1,1003.6,322.8,2.6,5.5,344.9,0.32,15.3,18.5,"13:02:24",1
"22/05/14","13:20",0.0,20.6,70.6,1003.4,358.9,2.2,4.8,347.1,0.31,15.1,18.6,"13:19:36",1
"22/05/14","13:30",0.0,20.6,70.1,1003.4,2.5,3.4,7.0,17.4,0.37,15.0,18.5,"13:25:12",1
"22/05/14","13:40",0.0,20.7,69.6,1002.9,7.0,3.7,6.6,17.7,0.56,15.0,18.7,"13:39:20",1
"22/05/14","13:50",0.0,21.2,68.9,1003.1,2.0,3.2,5.7,24.2,0.50,15.3,18.7,"13:42:32",1
"22/05/14","14:00",0.0,21.0,67.3,1003.4,351.0,3.2,7.9,321.6,0.33,14.8,18.7,"13:59:52",1
"22/05/14","14:10",0.0,20.5,68.1,1003.6,356.5,3.7,8.1,349.8,0.28,14.5,18.7,"14:03:12",1
"22/05/14","14:20",0.0,21.0,67.9,1003.4,353.6,3.2,8.2,3.0,0.48,14.9,18.7,"14:17:04",1
"22/05/14","14:30",0.0,21.9,68.0,1002.6,321.6,3.1,6.3,333.4,0.57,15.8,18.9,"14:21:36",1
"22/05/14","14:40",0.0,22.1,66.4,1003.1,347.4,3.0,6.4,327.8,0.56,15.6,18.8,"14:32:00",1
"22/05/14","14:50",0.0,21.5,64.8,1002.9,352.5,3.0,5.8,4.0,0.40,14.6,18.7,"14:48:56",1
"22/05/14","15:00",0.0,21.0,65.3,1003.4,349.8,3.0,6.5,334.6,0.28,14.3,18.8,"14:58:40",1
"22/05/14","15:10",0.0,20.3,66.4,1003.1,5.6,3.2,6.8,26.0,0.15,13.9,18.9,"15:03:12",1
"22/05/14","15:20",0.0,20.4,68.1,1003.6,350.7,3.0,6.0,330.6,0.20,14.4,18.9,"15:12:32",1
"22/05/14","15:30",0.0,20.5,66.5,1003.1,349.0,3.4,6.5,344.6,0.26,14.1,18.8,"15:22:08",1
"22/05/14","15:40",0.0,20.3,66.9,1003.1,357.0,2.7,5.1,6.4,0.21,14.0,18.7,"15:33:28",1
"22/05/14","15:50",0.0,21.2,65.6,1003.4,342.7,3.0,6.2,348.8,0.36,14.5,18.8,"15:46:56",1
"22/05/14","16:00",0.0,21.3,62.9,1003.4,346.6,3.1,5.4,67.6,0.35,14.0,18.9,"15:55:12",1
"22/05/14","16:10",0.0,21.5,62.1,1002.9,356.7,2.5,4.7,356.9,0.34,14.0,18.8,"16:07:52",1
"22/05/14","16:20",0.0,21.7,61.5,1002.6,344.6,2.8,5.4,344.8,0.31,14.0,19.0,"16:16:24",1
"22/05/14","16:30",0.0,21.2,60.0,1002.9,350.7,3.6,5.7,345.7,0.27,13.2,19.0,"16:21:20",1
"22/05/14","16:40",0.0,21.2,59.6,1002.9,355.3,3.0,5.7,346.5,0.24,13.1,19.0,"16:38:48",1
"22/05/14","16:50",0.0,21.6,59.3,1002.9,350.3,2.6,5.0,314.3,0.26,13.4,19.1,"16:40:16",1
"22/05/14","17:00",0.0,21.6,58.7,1003.1,345.6,2.6,5.2,320.3,0.22,13.2,18.7,"16:55:44",1
"22/05/14","17:10",0.0,20.9,58.3,1002.6,346.5,3.4,7.1,339.9,0.19,12.5,19.1,"17:03:20",1
"22/05/14","17:20",0.0,21.0,58.4,1003.1,347.1,2.8,6.7,335.4,0.17,12.6,19.1,"17:14:56",1
"22/05/14","17:30",0.0,20.8,58.3,1003.1,353.3,2.6,5.7,346.3,0.12,12.4,19.0,"17:25:28",1
"22/05/14","17:40",0.0,20.8,60.3,1002.9,356.5,2.1,4.0,333.8,0.10,12.9,19.1,"17:31:44",1
"22/05/14","17:50",0.0,20.9,61.5,1003.1,356.8,2.0,4.0,329.2,0.03,13.3,19.1,"17:45:04",1
"22/05/14","18:00",0.0,20.4,61.9,1002.9,358.1,2.3,4.9,350.4,0.01,12.9,18.8,"17:58:32",1
"22/05/14","18:10",0.0,20.1,61.6,1003.1,356.5,2.2,5.4,347.4,0.01,12.5,19.2,"18:06:32",1
"22/05/14","18:20",0.0,19.6,62.3,1003.6,355.3,2.3,4.1,1.5,0.01,12.2,19.0,"18:10:56",1
"22/05/14","18:30",0.0,19.3,63.2,1003.8,3.9,2.0,3.3,22.6,0.01,12.2,19.1,"18:26:40",1
"22/05/14","18:40",0.0,19.0,63.4,1003.8,3.1,2.0,4.8,45.8,0.00,11.9,19.0,"18:33:12",1
"22/05/14","18:50",0.0,18.5,62.9,1004.1,3.6,1.8,3.6,327.1,0.00,11.3,19.0,"18:41:52",1
"22/05/14","19:00",0.0,18.1,64.4,1004.3,353.1,2.3,5.1,340.2,0.00,11.3,19.0,"18:56:32",1
"22/05/14","19:10",0.0,17.5,65.9,1003.8,344.8,2.0,3.6,326.4,0.00,11.1,19.1,"19:00:40",1
"22/05/14","19:20",0.0,17.1,67.2,1005.0,309.6,1.2,2.4,318.5,0.00,11.0,19.1,"19:19:52",1
"22/05/14","19:30",0.0,16.7,69.0,1004.8,310.4,1.8,3.3,314.1,0.00,11.0,18.7,"19:25:28",1
"22/05/14","19:40",0.0,16.5,70.4,1005.2,324.2,2.3,3.9,335.9,0.00,11.1,18.9,"19:36:16",1
"22/05/14","19:50",0.0,16.2,71.3,1004.8,323.0,2.8,3.9,310.2,0.00,11.0,18.8,"19:46:16",1
"22/05/14","20:00",0.0,15.7,71.9,1005.2,331.0,2.5,4.0,323.2,0.00,10.7,18.7,"19:58:24",1
"22/05/14","20:10",0.0,15.5,72.1,1005.0,331.5,3.2,6.2,347.8,0.00,10.5,18.8,"20:05:54",1
"22/05/14","20:20",0.0,15.5,71.5,1005.0,326.5,3.9,6.0,316.9,0.00,10.4,18.7,"20:17:22",1
"22/05/14","20:30",0.0,15.4,71.3,1005.7,333.1,2.5,5.1,334.1,0.00,10.3,18.7,"20:25:08",1
"22/05/14","20:40",0.0,15.3,71.6,1005.2,345.1,1.6,3.5,345.0,0.00,10.2,18.6,"20:32:08",1
"22/05/14","20:50",0.0,14.9,72.1,1006.0,353.5,1.7,2.8,343.4,0.00,10.0,18.7,"20:44:32",1
"22/05/14","21:00",0.0,15.2,71.7,1006.4,354.7,1.6,2.6,358.5,0.00,10.2,18.7,"20:53:44",1
"22/05/14","21:10",0.0,14.5,72.4,1006.7,331.2,1.8,3.9,358.3,0.00,9.6,18.7,"21:09:14",1
"22/05/14","21:20",0.0,15.0,71.5,1006.7,343.5,2.7,5.9,343.1,0.00,9.9,18.6,"21:11:14",1
"22/05/14","21:30",0.0,14.8,71.9,1006.7,332.1,2.2,3.6,343.6,0.00,9.8,18.7,"21:21:38",1
"22/05/14","21:40",0.0,14.8,73.0,1007.1,343.6,2.6,4.8,341.7,0.00,10.1,18.6,"21:33:46",1
"22/05/14","21:50",0.0,14.8,73.3,1006.9,0.3,2.2,4.5,354.9,0.00,10.1,18.4,"21:44:46",1
"22/05/14","22:00",0.0,14.6,74.0,1007.1,352.4,2.1,3.7,328.8,0.00,10.1,18.2,"21:52:28",1
"22/05/14","22:10",0.0,14.5,74.6,1007.1,353.0,2.2,3.9,357.1,0.00,10.1,18.5,"22:02:56",1
"22/05/14","22:20",0.0,14.4,75.5,1007.4,344.2,2.8,4.7,344.0,0.00,10.2,18.4,"22:14:16",1
"22/05/14","22:30",0.0,14.4,76.1,1007.4,326.5,3.1,5.6,342.6,0.00,10.3,18.3,"22:20:24",1
"22/05/14","22:40",0.0,14.1,77.2,1007.4,321.8,2.7,4.7,335.9,0.00,10.2,18.4,"22:39:02",1
"22/05/14","22:50",0.0,14.1,77.9,1007.4,335.5,2.7,4.4,330.3,0.00,10.3,18.3,"22:42:34",1
"22/05/14","23:00",0.0,13.8,78.8,1007.1,343.0,2.2,4.3,341.9,0.00,10.2,18.3,"22:57:26",1
"22/05/14","23:10",0.0,13.7,79.6,1007.4,330.2,2.3,3.7,320.2,0.00,10.3,18.2,"23:06:40",1
"22/05/14","23:20",0.0,13.6,79.9,1007.1,321.5,1.8,3.3,294.8,0.00,10.2,18.0,"23:13:10",1
"22/05/14","23:30",0.0,13.3,80.8,1007.1,310.0,2.1,3.9,320.7,0.00,10.1,18.0,"23:28:24",1
"22/05/14","23:40",0.0,13.5,81.0,1007.4,317.4,2.8,4.5,321.8,0.00,10.3,18.2,"23:36:18",1
"22/05/14","23:50",0.0,13.2,81.2,1007.4,315.6,1.8,3.7,329.4,0.00,10.1,18.0,"23:43:38",1
"22/05/14","24:00",0.0,13.0,81.9,1007.4,309.7,2.1,2.9,302.3,0.00,10.0,17.8,"23:53:48",1
